Temperature
23 22 21 22 24 25 26 30 33 34 34 34 34 34 33 31 30 28 27 26 25 24 24 23 23 23 22 21 21 20 20 20 19 19 19 19 19 19 19 19 19 19 19 19 19 19 19 19 19
22 21 22 25 26 25 27 31 33 34 34 34 34 34 33 30 29 28 27 25 24 24 24 23 23 23 22 22 21 20 20 20 20 19 19 19 19 19 19 19 19 19 19 19 19 19 19 20 20
22 23 25 29 29 29 31 33 34 35 34 34 34 33 31 30 28 27 26 25 23 23 23 23 23 23 22 22 21 20 20 20 20 19 19 19 19 19 19 19 19 19 19 19 19 19 20 20 20
23 25 27 30 32 34 34 35 35 35 34 34 34 32 29 28 28 26 25 24 22 22 23 23 23 23 22 22 21 21 20 20 20 19 19 19 19 19 19 19 19 19 19 19 19 20 20 20 20
24 28 30 32 34 35 36 35 35 35 34 34 33 30 28 27 27 26 25 24 22 21 23 23 23 22 22 22 21 21 21 20 20 20 19 19 19 19 19 19 19 19 19 19 19 20 20 20 20
27 31 31 33 34 35 36 35 35 35 34 34 32 30 28 27 26 26 25 25 23 22 22 23 22 22 22 22 21 21 21 21 20 20 20 20 20 20 20 20 19 19 19 19 20 20 20 20 20
28 31 31 33 34 35 36 35 35 34 34 33 32 30 27 27 27 26 26 25 24 22 22 23 22 22 22 22 21 21 21 21 21 20 20 20 20 20 20 19 19 20 19 19 19 20 20 20 20
29 31 31 33 34 35 36 35 35 34 33 33 32 30 28 27 27 26 26 26 25 23 22 22 22 22 22 22 21 21 21 21 21 20 20 20 20 20 20 20 20 19 19 19 19 20 20 20 20
29 30 30 33 34 35 35 35 34 34 32 31 30 30 28 27 27 26 26 26 25 24 22 21 20 21 21 21 21 21 21 21 21 20 20 20 20 20 19 20 20 19 19 19 19 19 19 19 19
30 30 31 34 35 35 35 34 34 33 31 29 28 28 27 27 27 26 26 26 25 24 23 22 21 20 20 20 20 20 20 20 20 20 20 20 20 19 19 19 19 19 19 19 19 19 19 19 19
31 31 32 34 34 34 34 33 32 32 29 27 27 28 27 27 26 26 26 26 24 24 23 23 21 20 20 20 20 20 19 19 20 19 19 19 19 19 19 19 19 19 19 19 19 19 19 19 19
32 32 33 33 33 33 33 33 31 29 28 27 26 26 27 27 26 26 25 25 24 23 23 22 21 20 20 20 20 20 20 20 19 19 19 19 19 19 19 19 19 18 18 18 18 18 19 19 18
32 33 33 33 33 33 32 31 30 28 26 25 25 25 25 25 25 24 24 23 23 22 22 22 21 20 20 20 20 19 19 19 19 19 19 19 19 19 19 19 19 19 18 18 18 18 18 18 18
33 33 33 33 33 33 32 31 30 27 25 24 23 22 22 22 22 22 22 21 21 21 21 21 20 20 19 19 19 19 19 19 19 19 19 18 18 18 18 18 18 18 18 18 18 18 18 18 18
32 32 32 32 32 32 31 30 28 25 24 23 22 21 20 20 20 20 20 20 20 20 20 20 19 19 19 18 18 18 18 18 18 18 18 18 18 17 17 17 17 17 17 17 18 18 17 17 17
32 31 30 31 32 31 31 28 26 25 24 22 21 20 19 19 19 19 19 19 19 19 19 19 19 18 18 18 18 18 18 18 18 18 18 17 17 17 17 17 17 17 17 17 17 17 17 17 17
30 29 29 29 29 30 30 26 25 24 24 22 21 20 19 19 18 18 18 18 18 18 18 18 18 18 18 18 18 17 17 17 17 17 17 17 17 17 17 16 16 16 16 16 16 16 16 16 17
27 27 26 26 28 29 28 26 27 25 24 23 22 21 20 19 18 18 18 18 18 18 18 18 18 18 18 17 17 17 17 17 17 17 17 17 17 16 16 16 16 16 16 16 16 16 16 16 16
29 27 26 26 28 29 28 27 27 26 25 24 22 21 20 19 19 18 18 18 18 17 17 17 17 17 17 17 17 17 17 17 17 17 16 16 16 16 16 16 16 15 15 15 15 15 15 16 16
30 28 27 27 28 28 28 27 27 26 25 24 22 21 21 20 19 18 18 18 18 17 17 17 17 17 17 17 17 17 17 17 17 17 16 16 16 16 15 15 15 15 15 15 15 15 15 15 15
28 27 27 27 28 28 27 25 24 25 24 24 23 22 22 21 20 20 19 19 18 18 17 17 17 16 16 16 16 16 16 16 16 16 16 16 15 15 15 15 15 15 15 15 15 15 15 15 15
27 28 28 28 27 25 24 21 20 21 23 24 24 23 23 22 21 21 20 19 19 18 18 17 17 16 15 15 15 15 15 15 15 15 15 15 15 15 15 15 14 14 14 14 14 14 14 15 15
28 29 28 26 24 24 22 20 19 19 20 23 24 24 23 22 22 21 20 20 19 19 18 18 17 16 15 15 14 14 14 14 14 14 14 14 14 14 15 14 14 14 14 14 14 14 14 14 15
31 29 25 22 21 20 20 20 19 19 21 23 24 24 23 22 22 21 20 20 19 19 18 18 17 16 15 14 14 13 13 13 13 13 13 13 14 14 14 14 14 14 14 14 14 14 14 14 14
30 28 24 21 19 19 20 20 21 23 24 24 24 24 23 23 22 21 21 20 19 19 18 17 16 15 15 14 13 13 13 12 12 12 13 13 13 14 14 14 14 13 13 13 13 13 14 14 14
29 29 26 25 24 22 22 21 23 25 24 25 25 24 24 23 22 22 21 20 19 18 18 17 16 15 14 14 13 12 12 12 12 12 12 12 12 12 13 13 13 13 13 13 13 13 13 13 13
29 29 30 29 28 26 24 23 23 25 25 25 25 25 24 23 22 21 20 19 19 18 17 16 15 14 14 13 13 12 12 12 11 11 11 11 11 12 12 12 12 12 12 12 12 12 12 13 13
30 30 29 28 26 26 26 24 23 24 25 25 25 24 24 23 22 21 20 19 18 17 16 15 15 14 13 13 12 12 12 11 11 10 10 10 10 10 11 11 11 11 11 11 12 12 12 12 12
29 29 28 28 27 26 26 24 25 25 25 25 25 24 23 22 21 20 19 18 17 16 15 15 14 13 13 12 12 11 11 10 10 10 10 10 10 10 10 10 10 10 11 11 11 11 11 11 12
30 29 28 26 26 27 26 24 27 26 26 25 24 23 22 21 20 19 18 17 16 15 15 14 13 12 12 12 11 11 10 10 10 9 9 9 9 9 9 9 10 10 10 10 11 11 11 11 11
Wind_Speed
13 13 10 7 4 2 5 5 9 12 11 9 8 8 15 16 12 8 9 18 25 23 21 20 19 17 15 14 13 14 14 13 12 12 11 11 10 10 10 9 9 9 9 9 9 9 9 9 9
13 12 9 6 5 2 1 3 8 9 8 6 7 11 16 16 12 11 13 19 24 22 19 19 19 17 15 14 13 13 13 13 12 12 11 11 10 10 9 9 8 8 8 8 8 8 8 8 8
13 13 7 7 8 4 0 5 7 6 7 5 8 12 11 9 11 10 15 20 22 19 19 20 19 17 16 14 13 13 13 13 12 12 11 11 11 10 9 9 8 8 8 8 8 7 7 7 7
8 9 7 10 13 4 4 7 5 5 5 5 7 11 10 8 9 13 17 21 21 19 19 20 19 17 16 14 13 12 12 12 12 12 11 11 10 10 9 9 8 8 8 8 8 7 7 7 7
10 7 12 15 13 3 5 7 5 6 5 7 10 13 11 11 15 16 17 20 19 19 19 20 19 17 16 14 13 12 11 11 11 11 11 10 10 10 10 9 9 9 9 8 8 8 8 7 7
7 9 13 14 9 3 4 6 5 6 5 5 10 13 10 13 14 15 17 17 19 20 19 18 18 16 15 14 12 11 11 10 10 10 10 10 10 10 10 10 10 10 10 10 9 9 9 9 8
10 12 16 18 15 9 2 3 4 5 6 5 7 11 9 12 13 15 15 15 18 20 19 16 16 15 14 13 12 11 11 10 10 10 10 9 10 10 10 10 11 11 11 11 10 10 10 10 10
11 12 18 18 16 9 4 3 5 4 4 5 7 8 12 14 14 15 14 13 16 19 18 15 15 15 13 13 13 12 11 11 10 10 10 10 10 11 12 12 13 13 13 12 12 12 12 12 13
14 13 16 17 14 7 6 5 5 4 6 11 14 12 16 16 15 15 13 12 12 15 16 15 15 13 13 14 14 14 12 12 11 11 12 11 11 13 14 17 17 17 16 15 15 14 14 14 15
13 14 18 16 14 11 7 6 6 4 10 12 12 13 14 13 12 12 12 12 11 11 12 11 12 12 10 9 13 12 12 13 13 13 14 13 13 13 15 19 23 21 20 19 18 17 16 15 14
18 19 19 18 14 11 9 5 6 6 10 9 7 7 9 10 9 8 9 10 10 7 6 10 10 9 6 3 8 6 7 10 14 13 13 13 12 11 11 8 15 18 19 16 17 17 15 15 14
20 20 18 17 12 10 9 5 5 12 10 10 10 7 6 7 7 6 7 8 10 6 4 5 8 7 2 2 1 1 1 2 4 6 8 6 3 4 4 3 5 10 12 11 11 10 14 15 15
19 18 17 15 12 10 5 2 4 10 11 11 11 11 10 7 7 8 9 8 9 6 4 6 8 7 5 5 4 4 4 3 3 0 4 4 3 4 5 4 3 4 5 6 6 7 8 8 8
14 14 14 13 10 8 5 3 2 8 10 12 11 12 12 12 12 12 12 11 9 7 7 7 8 7 5 3 3 3 3 3 4 3 3 3 3 3 4 5 5 5 6 5 4 6 6 6 6
14 15 15 12 10 7 6 4 5 8 8 10 10 10 12 13 13 13 11 10 8 8 8 7 5 6 5 3 3 3 4 4 3 3 5 5 5 4 3 4 5 5 7 8 6 6 4 7 7
14 14 14 10 8 7 8 5 9 6 8 10 9 9 10 11 12 11 11 10 10 9 8 7 6 6 4 2 2 3 4 4 3 4 5 5 6 5 3 4 5 5 6 5 7 8 7 7 6
12 10 8 2 3 4 5 8 9 7 9 10 9 9 9 8 9 9 9 9 8 8 7 6 7 6 5 4 2 3 2 2 3 3 3 4 5 6 4 4 5 5 5 6 8 8 7 7 7
7 7 4 1 3 4 5 10 10 9 10 10 9 9 8 8 7 7 6 7 6 6 6 5 5 5 4 4 3 2 2 2 2 1 1 2 4 5 4 4 4 4 5 5 6 8 7 6 6
8 6 4 6 7 4 7 10 10 9 9 10 10 9 9 9 8 7 6 6 6 6 5 4 5 5 4 4 5 4 4 4 3 2 1 1 3 4 4 4 4 4 4 5 6 7 7 7 5
6 1 2 4 4 4 5 8 10 9 9 9 10 10 10 9 8 7 6 5 4 4 3 3 4 5 5 4 4 3 4 4 4 1 0 1 1 3 4 3 4 4 4 5 4 4 4 5 5
7 6 6 5 6 5 3 4 6 7 10 9 9 9 9 9 8 6 5 4 4 3 2 3 3 3 4 6 5 6 5 5 4 3 2 1 1 3 3 4 4 4 4 4 4 3 4 4 4
5 8 10 8 6 5 2 2 4 3 5 9 9 9 8 7 6 5 4 3 2 2 2 3 2 1 3 5 6 8 8 7 7 5 4 5 4 4 4 4 3 4 4 3 4 3 3 3 4
4 6 5 11 11 9 5 3 2 2 5 7 7 7 6 5 4 3 1 1 1 2 2 1 2 1 2 4 7 8 8 8 8 8 9 8 7 7 6 5 3 3 3 3 4 4 4 3 4
6 5 7 11 8 7 6 2 4 7 8 7 7 6 4 2 2 2 1 1 2 3 3 3 4 4 4 5 7 8 9 8 10 10 11 9 7 6 5 5 4 4 3 2 3 4 5 4 5
8 8 4 3 0 7 9 4 5 9 7 6 5 4 2 0 1 1 2 3 3 4 4 4 5 5 5 6 7 8 8 9 10 11 9 9 7 7 6 5 2 3 3 3 3 3 4 4 4
8 7 7 9 4 3 5 4 7 10 7 5 4 2 1 2 3 4 5 4 5 6 5 5 6 6 6 6 7 7 9 9 8 8 9 9 9 9 9 7 6 5 5 5 4 3 4 3 3
8 10 12 11 10 1 6 7 7 7 5 4 3 4 5 6 7 7 8 8 8 7 7 7 7 7 7 7 8 9 9 8 9 9 10 9 8 10 9 9 8 7 7 6 6 5 5 4 4
8 9 8 9 9 8 6 7 6 5 5 6 6 7 8 8 9 10 10 10 9 8 7 7 7 8 7 8 8 11 8 8 9 9 9 9 10 10 10 10 10 9 8 8 7 6 6 6 5
8 9 8 9 8 8 6 7 8 5 5 6 8 8 8 9 11 11 10 10 9 9 9 8 8 8 7 8 7 8 7 8 9 9 10 9 10 10 10 10 10 10 10 9 9 9 8 8 7
5 6 7 7 8 7 6 5 4 3 6 9 9 9 10 10 10 11 11 10 10 10 11 10 10 9 8 8 8 8 8 8 9 11 10 10 10 10 11 10 10 11 12 10 10 11 11 10 9
Wind_Direction
180 194 207 223 238 263 323 356 41 39 44 47 44 38 57 51 46 76 96 107 115 123 131 134 132 131 130 131 135 141 145 146 144 144 143 142 142 141 139 135 133 131 125 120 117 114 112 111 110
190 199 212 232 227 207 292 2 38 49 41 36 56 52 65 63 67 95 102 113 119 125 136 136 135 133 132 131 134 140 147 149 149 148 148 148 149 149 148 147 146 144 137 130 126 124 123 122 123
216 222 243 245 242 227 10 42 28 59 70 36 63 66 54 62 78 96 116 121 121 127 130 133 139 136 135 133 134 139 146 151 153 153 154 156 156 157 157 158 159 158 150 144 142 138 137 138 139
226 227 243 256 275 307 32 43 21 41 81 55 54 76 68 56 87 113 126 123 123 129 131 137 140 139 138 138 139 142 146 152 156 159 161 162 163 164 165 167 170 168 161 159 157 155 154 156 159
241 256 251 265 277 318 37 38 13 34 40 62 81 93 87 86 103 122 128 127 135 134 132 139 142 142 143 144 146 149 152 156 160 163 166 169 171 173 175 177 179 176 173 173 172 172 172 175 180
248 256 270 285 300 336 46 37 14 40 31 59 94 107 107 117 124 132 134 141 139 133 132 137 142 144 147 151 155 158 161 165 169 173 176 180 184 186 187 189 189 188 187 186 185 186 188 190 195
257 278 285 291 297 301 48 25 13 33 40 31 78 99 117 131 133 135 140 144 138 132 132 143 147 150 154 158 164 169 173 177 182 186 189 194 198 200 202 202 201 201 200 198 197 198 199 201 205
267 283 283 282 283 293 67 25 33 36 58 37 50 103 137 140 144 137 143 145 137 133 138 149 153 155 162 168 175 179 183 188 194 198 201 206 211 215 216 214 210 211 210 208 209 210 210 210 213
262 266 270 276 295 332 40 13 7 29 69 56 49 78 123 139 141 141 149 147 140 135 140 156 155 159 172 175 175 181 191 198 201 206 211 214 220 219 216 221 214 211 212 214 216 218 219 219 220
240 254 264 282 314 327 347 346 341 359 61 48 53 79 110 132 140 152 153 149 141 135 146 153 154 157 180 184 159 184 194 196 204 209 202 208 224 234 231 215 210 209 212 215 218 221 223 224 228
245 251 271 289 304 313 313 324 6 30 61 54 53 86 118 132 144 158 152 143 133 142 152 146 143 146 178 159 157 194 200 182 197 218 209 209 220 231 240 228 201 207 213 217 220 219 222 224 226
250 254 265 279 295 299 297 307 27 52 53 54 55 64 95 128 142 154 138 134 129 137 130 109 118 127 112 47 22 351 337 145 193 200 217 223 220 260 271 264 201 199 210 219 224 215 217 223 226
251 252 259 266 267 269 280 341 50 63 58 58 56 55 54 65 82 78 76 79 99 104 89 71 80 83 62 35 1 5 349 341 328 311 228 243 242 251 266 285 291 269 239 221 224 227 221 219 224
271 270 264 262 258 245 233 202 127 76 68 65 58 51 48 48 56 63 66 64 64 65 60 60 63 71 67 45 7 338 319 309 308 306 303 289 280 272 280 284 286 291 286 283 258 246 237 233 230
262 266 264 253 245 224 203 188 105 91 85 78 70 60 51 44 50 58 60 61 62 61 56 51 66 63 53 23 343 319 301 312 329 329 322 314 305 308 294 282 276 272 276 280 277 269 279 243 238
262 255 255 244 227 206 220 135 95 103 105 94 88 80 69 56 53 55 58 59 57 56 55 40 33 47 47 30 343 314 322 333 328 321 329 336 327 317 303 285 276 267 262 261 267 264 258 247 238
264 268 268 276 328 247 205 131 131 143 119 110 103 95 86 75 65 61 60 63 62 59 56 54 40 32 21 4 335 309 300 294 295 310 338 349 329 320 307 288 283 283 266 256 258 255 247 249 243
318 309 307 323 237 229 136 128 139 137 125 119 114 107 102 96 87 80 74 76 74 70 63 56 55 40 8 2 339 337 332 329 301 316 9 345 325 319 309 287 285 288 277 265 255 256 252 251 245
234 210 176 199 223 219 169 151 145 137 131 124 120 116 110 104 104 100 95 87 82 77 72 61 55 43 13 23 355 347 343 328 308 278 80 356 320 319 295 298 305 291 285 276 265 260 252 245 237
300 318 195 219 257 251 189 155 141 135 125 123 125 125 122 122 118 120 125 118 105 100 103 102 66 39 16 17 325 298 311 297 278 296 342 243 315 318 306 317 296 294 295 290 288 271 259 250 220
331 328 299 268 250 249 247 134 103 116 126 136 135 132 129 134 133 138 135 133 132 126 110 77 63 30 15 346 321 332 320 302 311 333 307 264 294 283 289 292 288 291 286 287 283 270 262 263 255
316 301 293 284 276 272 228 197 150 184 177 156 146 142 134 129 132 133 139 134 143 167 173 143 135 39 353 332 332 331 313 309 315 316 320 325 301 270 253 256 270 286 288 286 287 272 261 260 267
263 249 329 7 0 346 7 33 185 174 235 172 148 132 123 122 117 108 79 93 306 298 304 183 146 97 355 340 320 315 311 318 318 320 312 303 287 262 240 232 228 253 275 291 294 291 274 265 257
318 300 31 31 14 332 283 254 208 185 196 168 144 132 130 130 140 154 244 244 280 304 330 3 45 31 7 341 325 317 314 312 307 300 293 289 280 270 250 228 210 220 244 268 280 285 279 272 262
321 312 337 3 72 256 239 225 177 161 148 135 125 115 117 128 284 291 301 323 330 329 354 6 12 1 349 332 319 316 313 307 294 288 295 306 308 308 304 297 252 239 234 240 253 264 278 276 261
317 321 315 313 295 227 192 186 120 115 115 110 98 75 350 352 12 351 345 357 350 346 355 355 352 336 322 312 308 308 299 293 293 307 320 309 299 294 292 297 286 265 246 245 236 246 254 260 255
336 341 335 323 322 14 138 122 114 132 125 81 29 6 4 3 351 343 353 349 344 353 356 349 338 329 324 317 307 289 283 301 314 312 298 291 292 296 304 317 304 287 267 251 240 240 245 247 244
341 340 352 340 348 347 80 105 115 103 38 11 4 3 358 349 349 355 352 342 349 347 345 343 339 333 325 313 305 308 321 314 300 297 295 294 290 286 284 281 281 277 268 254 239 235 232 231 235
352 4 5 347 356 341 358 79 91 59 10 8 6 2 355 353 351 346 344 347 345 341 339 340 336 329 321 315 310 307 302 300 299 295 291 291 293 293 291 286 283 280 274 265 251 240 232 227 230
347 9 355 346 342 325 334 101 75 35 29 30 9 1 1 355 349 346 343 345 341 336 335 333 329 321 317 317 313 307 302 300 298 298 296 295 293 290 288 284 281 277 274 266 257 249 242 228 224
Height
1503 1504 1506 1510 1509 1509 1502 1480 1464 1464 1463 1465 1465 1464 1468 1474 1480 1492 1494 1493 1493 1495 1499 1503 1506 1509 1512 1515 1518 1520 1523 1525 1528 1530 1531 1533 1535 1536 1538 1540 1541 1542 1544 1545 1546 1547 1548 1550 1551
1503 1504 1508 1507 1505 1512 1499 1474 1467 1465 1466 1465 1465 1466 1470 1478 1484 1490 1493 1495 1494 1496 1500 1503 1507 1510 1513 1516 1518 1521 1523 1526 1528 1530 1532 1534 1536 1537 1539 1540 1542 1543 1545 1546 1547 1548 1549 1551 1552
1503 1506 1507 1496 1490 1493 1484 1468 1465 1462 1466 1466 1466 1470 1476 1484 1488 1491 1494 1496 1496 1497 1500 1504 1507 1510 1513 1516 1519 1521 1524 1526 1528 1531 1533 1534 1536 1538 1539 1541 1542 1544 1545 1546 1548 1549 1550 1552 1553
1505 1506 1501 1489 1480 1468 1464 1462 1462 1462 1465 1466 1467 1474 1483 1488 1490 1492 1495 1497 1497 1499 1501 1505 1508 1511 1514 1516 1519 1522 1524 1526 1529 1531 1533 1535 1536 1538 1539 1541 1543 1544 1545 1547 1548 1549 1551 1552 1553
1507 1502 1492 1483 1470 1461 1458 1461 1462 1463 1465 1467 1470 1478 1487 1491 1492 1493 1496 1498 1500 1501 1502 1506 1509 1512 1514 1517 1519 1522 1524 1526 1528 1530 1532 1534 1536 1538 1539 1541 1542 1544 1545 1547 1548 1549 1551 1552 1554
1505 1493 1489 1481 1466 1458 1457 1461 1462 1465 1467 1468 1471 1478 1488 1492 1493 1495 1498 1500 1502 1503 1504 1507 1510 1513 1515 1517 1520 1522 1524 1526 1528 1530 1532 1534 1536 1537 1539 1540 1542 1543 1545 1546 1547 1549 1550 1552 1553
1503 1493 1487 1477 1468 1460 1458 1462 1463 1466 1469 1470 1472 1479 1489 1491 1494 1497 1499 1502 1504 1505 1505 1508 1511 1513 1516 1518 1520 1523 1525 1526 1528 1530 1532 1533 1535 1536 1538 1539 1541 1542 1544 1545 1546 1547 1549 1550 1551
1500 1493 1487 1477 1468 1461 1458 1462 1464 1467 1470 1473 1473 1478 1487 1491 1493 1497 1501 1504 1506 1507 1507 1509 1511 1514 1516 1519 1521 1523 1525 1526 1528 1530 1531 1533 1534 1535 1537 1538 1540 1541 1542 1543 1544 1546 1547 1548 1549
1499 1497 1491 1476 1466 1460 1460 1464 1466 1469 1472 1475 1478 1480 1485 1491 1494 1497 1501 1505 1507 1509 1509 1511 1513 1514 1517 1519 1521 1523 1525 1526 1527 1529 1530 1531 1533 1534 1535 1537 1538 1539 1540 1541 1542 1543 1544 1545 1546
1495 1493 1483 1469 1464 1463 1464 1467 1469 1471 1475 1481 1484 1487 1489 1493 1496 1498 1501 1504 1507 1510 1512 1513 1515 1516 1519 1522 1522 1523 1524 1525 1527 1528 1528 1530 1531 1533 1535 1535 1536 1536 1537 1538 1538 1539 1540 1541 1542
1487 1485 1477 1471 1468 1467 1468 1470 1472 1474 1481 1487 1488 1490 1491 1494 1497 1500 1502 1504 1507 1511 1513 1515 1516 1517 1520 1523 1523 1524 1525 1525 1526 1527 1528 1528 1530 1531 1532 1534 1533 1533 1533 1533 1534 1534 1535 1537 1538
1481 1477 1475 1472 1470 1471 1471 1471 1476 1481 1487 1490 1491 1492 1493 1495 1497 1499 1501 1504 1507 1511 1513 1515 1515 1517 1519 1522 1523 1524 1525 1526 1526 1526 1527 1528 1528 1529 1530 1531 1531 1530 1529 1529 1530 1530 1530 1532 1534
1474 1472 1471 1470 1470 1471 1473 1475 1479 1486 1489 1491 1493 1494 1495 1495 1496 1498 1500 1503 1506 1510 1513 1514 1515 1516 1518 1520 1521 1522 1523 1525 1525 1525 1525 1525 1526 1525 1526 1526 1526 1527 1526 1526 1525 1526 1526 1527 1529
1470 1468 1467 1467 1467 1469 1472 1476 1481 1488 1491 1494 1496 1497 1497 1497 1498 1499 1501 1504 1507 1509 1512 1513 1515 1516 1517 1518 1520 1520 1522 1523 1523 1523 1523 1522 1522 1522 1521 1521 1521 1521 1521 1522 1522 1521 1521 1523 1524
1469 1469 1467 1465 1466 1467 1472 1478 1484 1491 1493 1496 1499 1500 1500 1501 1500 1501 1503 1505 1507 1509 1511 1513 1514 1515 1516 1517 1518 1519 1520 1520 1520 1520 1520 1519 1518 1517 1516 1516 1516 1516 1516 1516 1516 1516 1516 1517 1519
1467 1469 1472 1464 1463 1465 1473 1486 1487 1492 1495 1498 1500 1502 1503 1503 1503 1504 1506 1507 1508 1509 1511 1512 1514 1514 1515 1515 1516 1516 1517 1517 1517 1517 1516 1515 1514 1513 1512 1511 1511 1511 1510 1510 1510 1510 1510 1511 1512
1469 1476 1476 1472 1468 1468 1471 1486 1489 1493 1495 1498 1501 1503 1505 1506 1507 1507 1508 1508 1509 1510 1511 1512 1512 1513 1513 1514 1514 1514 1514 1514 1513 1513 1512 1511 1511 1509 1508 1507 1506 1505 1504 1503 1503 1503 1504 1505 1505
1484 1485 1484 1486 1477 1472 1476 1484 1486 1490 1494 1497 1501 1504 1506 1508 1509 1509 1509 1510 1510 1510 1511 1512 1512 1513 1513 1513 1513 1513 1513 1512 1511 1511 1509 1508 1507 1506 1504 1503 1501 1500 1498 1497 1497 1498 1498 1498 1499
1471 1477 1485 1486 1474 1474 1477 1481 1484 1489 1492 1496 1500 1504 1506 1508 1510 1511 1511 1511 1512 1511 1512 1512 1512 1512 1512 1512 1512 1512 1511 1511 1510 1509 1507 1505 1504 1502 1501 1499 1497 1496 1494 1493 1492 1491 1492 1492 1494
1467 1476 1481 1480 1473 1473 1475 1479 1483 1488 1493 1497 1501 1504 1506 1508 1510 1511 1512 1513 1513 1513 1513 1513 1512 1512 1512 1512 1511 1511 1510 1509 1508 1507 1505 1503 1500 1499 1498 1496 1494 1492 1490 1489 1488 1487 1487 1487 1489
1474 1478 1479 1479 1473 1472 1480 1489 1491 1490 1495 1500 1502 1503 1505 1507 1509 1511 1512 1513 1513 1514 1513 1513 1512 1511 1511 1510 1510 1509 1508 1507 1506 1504 1502 1500 1498 1496 1494 1492 1490 1489 1487 1485 1485 1484 1483 1484 1486
1478 1472 1472 1474 1481 1486 1489 1509 1505 1501 1499 1499 1501 1502 1504 1506 1508 1510 1512 1513 1513 1513 1513 1512 1511 1510 1509 1508 1507 1506 1505 1503 1502 1500 1498 1496 1494 1492 1490 1489 1487 1485 1484 1483 1482 1481 1481 1481 1482
1470 1466 1472 1480 1490 1496 1501 1514 1514 1509 1506 1499 1500 1501 1503 1505 1507 1509 1511 1512 1512 1512 1512 1511 1509 1507 1506 1505 1504 1503 1501 1499 1497 1495 1493 1491 1489 1488 1486 1484 1483 1481 1480 1479 1479 1478 1478 1478 1479
1461 1466 1478 1490 1504 1520 1513 1519 1519 1509 1503 1497 1498 1501 1503 1505 1507 1508 1509 1510 1510 1510 1509 1509 1507 1505 1503 1502 1501 1499 1497 1494 1492 1490 1488 1486 1485 1484 1482 1481 1479 1477 1476 1476 1475 1475 1475 1474 1474
1464 1476 1497 1517 1528 1523 1504 1512 1507 1494 1493 1494 1497 1499 1501 1503 1505 1506 1507 1507 1507 1507 1506 1505 1504 1502 1500 1499 1497 1495 1493 1490 1488 1485 1483 1482 1480 1479 1478 1477 1475 1474 1473 1472 1471 1471 1471 1470 1470
1466 1471 1492 1502 1504 1504 1500 1506 1495 1489 1493 1494 1496 1498 1500 1501 1503 1504 1505 1505 1505 1505 1504 1502 1500 1499 1497 1495 1493 1491 1488 1486 1483 1481 1479 1477 1475 1474 1473 1472 1471 1470 1469 1468 1467 1467 1466 1466 1466
1468 1469 1463 1472 1473 1484 1495 1497 1493 1489 1491 1492 1494 1496 1497 1500 1501 1503 1503 1503 1503 1502 1501 1499 1497 1495 1493 1491 1488 1486 1484 1481 1478 1476 1473 1472 1470 1469 1468 1466 1465 1464 1464 1463 1463 1462 1462 1462 1462
1465 1465 1470 1479 1491 1493 1489 1497 1502 1493 1492 1492 1493 1495 1497 1499 1500 1501 1502 1502 1501 1499 1498 1496 1494 1491 1489 1486 1484 1482 1479 1476 1473 1470 1468 1466 1464 1462 1461 1460 1459 1458 1458 1457 1457 1457 1457 1457 1458
1471 1472 1475 1477 1480 1495 1497 1503 1488 1490 1490 1491 1493 1495 1497 1499 1500 1500 1500 1499 1498 1497 1495 1493 1490 1488 1485 1482 1479 1476 1473 1470 1467 1465 1462 1460 1458 1456 1454 1453 1452 1452 1451 1451 1452 1452 1452 1452 1453
1469 1474 1477 1490 1491 1484 1489 1502 1484 1486 1486 1490 1493 1495 1497 1499 1499 1499 1498 1497 1496 1494 1492 1489 1486 1484 1481 1477 1474 1471 1468 1465 1462 1459 1456 1454 1451 1449 1448 1446 1445 1444 1444 1445 1445 1445 1446 1446 1447